Вернуться в каталог

STARLINK-33639

АктивенСвязьVLEO
NORAD 63481·PAYLOAD·🇺🇸 United States

Запущен Apr 6, 2025 с Cape Canaveral Space Force Station

Loading…

Ближайшие Пролёты (ближайшие 24 часа)

TLE

СвежийSource: CelesTrak SupGP

Эпоха: Sep 14, 2026, 22:34 UTC

1 63481C 25070X   26257.94076389  .00027052  00000+0  97993-3 0  2576
2 63481  43.0003 267.5895 0001492 266.0078 292.1974 15.27561364    16

Отслеживайте STARLINK-33639 в реальном времени с AllMySat

Download on the App Store